Regional Weather Roundup
Issued by NWS

Home | Current Version | Previous Version | Text Only | Print | Product List | Glossary Off
Versions: 1 2 3 4 5 6 7 8 9 10 11 12 13 14 15 16 17 18 19 20 21 22 23 24 25 26 27 28 29 30 31 32 33 34 35 36 37 38 39 40 41 42 43 44 45 46 47 48 49 50

000
ASUS45 KBOU 310007
RWRCO

WEATHER ROUNDUP FOR COLORADO
NATIONAL WEATHER SERVICE DENVER/BOULDER CO
600 PM MDT WED JUL 30 2014

NOTE: "FAIR" INDICATES FEW OR NO CLOUDS BELOW 12000 FEET WITH NO
SIGNIFICANT WEATHER AND/OR OBSTRUCTIONS TO VISIBILITY.

COZ001>005-013-030-031-310100-
...NORTHWEST COLORADO...

CITY           SKY/WX    TMP DP  RH WIND       PRES   REMARKS
CRAIG          CLOUDY    58  58 100 NE6       30.28R
HAYDEN         CLOUDY    61  55  82 SE10      30.30S
MEEKER         CLOUDY    73  51  46 NW7       30.25S
MOUNT WERNER   NOT AVBL
STEAMBOAT SPGS CLOUDY    61  52  71 NE5       30.32R
WALDEN         CLOUDY    55  45  67 NE9       30.41S
$$

COZ006>008-011-310100-
...WEST CENTRAL VALLEYS...

CITY           SKY/WX    TMP DP  RH WIND       PRES   REMARKS
GRAND JUNCTION PTSUNNY   76  55  48 NW20      30.13S
MONTROSE       MOSUNNY   80  54  40 N12       30.19S
EAGLE          PTSUNNY   70  55  60 CALM      30.30R
RIFLE          CLOUDY    73  55  53 N7        30.19F
DELTA          MOSUNNY   88  48  25 W9        30.13F THUNDER
NUCLA          PTSUNNY   81  48  32 W6        30.22F
$$

COZ017>023-064>068-310100-
...SOUTHWEST COLORADO...

CITY           SKY/WX    TMP DP  RH WIND       PRES   REMARKS
DURANGO        MOSUNNY   84  42  22 W15G24    30.19F
CORTEZ         MOSUNNY   86  50  28 NW9       30.16F
PAGOSA SPRINGS CLOUDY    74  47  38 N8        30.28S
TELLURIDE      NOT AVBL
WOLF CREEK PAS NOT AVBL
$$

COZ009-010-012-014-032>034-037-058>063-310100-
...CENTRAL COLORADO...

CITY           SKY/WX    TMP DP  RH WIND       PRES   REMARKS
ASPEN          LGT RAIN  65  53  65 MISG      30.33R
BUENA VISTA    CLOUDY    62  50  65 NE12      30.38S
COPPER MTN     CLOUDY    46  43  87 W7        30.64S THUNDER FOG
BERTHOUD PASS  FOG       36  36 100 E13       30.69R VSB<1/4
COTTONWOOD PAS CLOUDY    59  50  72 SE10      30.50S
GUNNISON       PTSUNNY   75  46  35 W10       30.31S
KREMMLING      CLOUDY    59  52  77 E3        30.38S
LEADVILLE      CLOUDY    53  51  93 S6        30.47F
MONARCH PASS   FOG       45  45 100 E15       30.72R VSB<1/4
SALIDA         PTSUNNY   64  53  66 E15G24    30.42R
SUNLIGHT       CLOUDY    54  50  87 W3        30.56F
WILKERSON PASS RAIN      43  43 100 NE13G20   30.63R VSB 1/2
$$

COZ069>075-310100-
...SAN LUIS VALLEY/SANGRE DE CRISTO MOUNTAINS...

CITY           SKY/WX    TMP DP  RH WIND       PRES   REMARKS
ALAMOSA        LGT RAIN  65  53  65 E9        30.31R
LA VETA PASS   DRZL/FOG  46  46 100 E9        30.53S VSB 1/4
SAGUACHE       PTSUNNY   70  52  52 S10       30.32R
$$

COZ035-036-038>040-310100-
...NORTHERN COLORADO FRONT RANGE...

CITY           SKY/WX    TMP DP  RH WIND       PRES   REMARKS
DENVER INTL AP LGT RAIN  60  57  89 E12       30.34S FOG
DMNS CITY PARK   N/A     58  57  96 E2        30.34R
AURORA         LGT RAIN  58  58 100 E9        30.35F
FRONT RANGE AP RAIN      63  57  82 E10       30.36R
ERIE MUNI ARPT LGT RAIN  60  58  95 E8        30.33F
BOULDER MUN AP RAIN      59  59 100 N6        30.34S
CENTENNIAL     LGT RAIN  58  56  93 E6        30.35S FOG
BROOMFIELD     DRIZZLE   59  57  94 N3        30.36S
FORT COLLINS   CLOUDY    59  55  88 SE3       30.35F
LONGMONT       RAIN      63  60  91 N6        30.36S
$$

COZ041-046-047-076>085-087-088-310100-
...PIKES PEAK/PALMER DIVIDE AND SOUTHERN FOOTHILLS...

CITY           SKY/WX    TMP DP  RH WIND       PRES   REMARKS
COLO. SPRINGS  LGT RAIN  58  56  93 E7        30.37S FOG
A. F. ACADEMY  LGT RAIN  57  55  94 SE5       30.38S FOG
ELLICOTT       CLOUDY    60  54  80 E12       30.35S
FALCON         LGT RAIN  56  54  94 E10       30.40S
FORT CARSON    LGT RAIN  57  57 100 SW5       30.35S FOG
LIMON          CLOUDY    61  52  72 E7        30.35R
MONUMENT HILL  RAIN      54  52  94 E10       30.39F
TRINIDAD       CLOUDY    63  56  78 E7        30.31F
$$

COZ042>045-048>051-090-091-310100-
...NORTHEAST COLORADO...

CITY           SKY/WX    TMP DP  RH WIND       PRES   REMARKS
GREELEY ARPT   NOT AVBL
AKRON          CLOUDY    63  54  72 SW9       30.30F
BURLINGTON     CLOUDY    67  52  58 CALM      30.27F
WRAY             N/A     70  55  58 W10       30.25S
STERLING       CLOUDY    68  61  77 SW7       30.26F
HOLYOKE        PTSUNNY   73  61  64 W10       30.24F
FORT MORGAN    CLOUDY    61  56  85 SW7       30.30F
$$

COZ086-089-092>099-310100-
...SOUTHEAST COLORADO...

CITY           SKY/WX    TMP DP  RH WIND       PRES   REMARKS
PUEBLO         CLOUDY    65  58  78 E10       30.28S
LA JUNTA       PTSUNNY   67  58  72 E12       30.26S
LAMAR          PTSUNNY   68  57  68 E8        30.24S
SPRINGFIELD      N/A     62  58  86 NE16      30.25F
$$



USA.gov is the U.S. government's official web portal to all federal, state and local government web resources and services.